Temp
-24 -24 -24 -24 -24 -24 -24 -24 -24 -24 -24 -24 -24 -25 -25 -25 -25 -25 -26 -26 -25 -24 -23 -22 -22 -21 -20 -20 -19 -17 -17 -17 -16 -16 -17 -16 -16 -15 -15 -14 -14 -14 -15 -15 -15 -15 -14 -14 -15 -15 -14 -15 -16 -16
-24 -24 -25 -25 -24 -24 -24 -24 -24 -24 -24 -24 -24 -25 -25 -25 -24 -25 -25 -25 -25 -24 -23 -23 -22 -22 -20 -20 -19 -18 -17 -17 -16 -16 -17 -16 -16 -15 -15 -15 -15 -15 -15 -16 -16 -15 -15 -15 -15 -15 -14 -15 -16 -16
-24 -25 -24 -25 -25 -24 -25 -25 -24 -25 -25 -24 -24 -24 -25 -25 -25 -25 -25 -26 -25 -24 -24 -22 -22 -22 -21 -20 -20 -20 -19 -18 -18 -17 -17 -17 -17 -16 -16 -16 -16 -16 -16 -16 -15 -15 -15 -16 -15 -14 -15 -15 -15 -15
-25 -25 -25 -25 -25 -25 -25 -25 -25 -25 -25 -25 -25 -25 -25 -25 -25 -25 -26 -26 -25 -25 -24 -22 -21 -21 -21 -21 -20 -20 -19 -19 -18 -18 -18 -17 -17 -17 -17 -17 -16 -16 -16 -15 -15 -15 -15 -16 -16 -16 -16 -15 -15 -15
-25 -25 -25 -25 -25 -25 -25 -25 -25 -25 -25 -25 -25 -25 -25 -25 -25 -26 -26 -26 -26 -26 -25 -23 -22 -22 -21 -21 -21 -20 -21 -20 -20 -19 -19 -18 -17 -17 -17 -17 -16 -15 -15 -16 -15 -16 -15 -16 -16 -16 -15 -15 -15 -16
-26 -25 -25 -25 -25 -26 -25 -25 -25 -25 -25 -25 -25 -26 -26 -26 -26 -26 -26 -26 -26 -26 -26 -24 -24 -23 -22 -22 -22 -21 -21 -20 -19 -19 -19 -19 -19 -18 -18 -17 -16 -16 -16 -16 -16 -16 -16 -16 -16 -16 -15 -16 -17 -17
-26 -26 -26 -25 -25 -26 -26 -26 -26 -25 -25 -25 -26 -26 -26 -26 -26 -26 -26 -26 -26 -26 -26 -25 -24 -22 -22 -22 -21 -21 -21 -21 -21 -21 -20 -19 -19 -18 -18 -18 -17 -17 -17 -17 -17 -17 -17 -16 -17 -17 -17 -17 -17 -18
-27 -26 -26 -25 -25 -25 -26 -26 -26 -26 -26 -26 -27 -26 -26 -26 -26 -27 -26 -26 -26 -26 -26 -25 -25 -24 -23 -23 -23 -22 -22 -21 -20 -19 -19 -19 -19 -19 -19 -18 -18 -18 -18 -18 -17 -17 -17 -17 -17 -18 -18 -18 -18 -18
-27 -27 -26 -26 -26 -25 -25 -26 -26 -26 -26 -26 -27 -27 -27 -26 -26 -26 -26 -26 -26 -26 -25 -25 -24 -24 -23 -23 -23 -22 -21 -21 -20 -19 -20 -20 -20 -19 -19 -20 -19 -19 -18 -18 -18 -18 -19 -19 -19 -19 -19 -19 -19 -19
-27 -27 -27 -27 -26 -26 -26 -26 -26 -26 -26 -27 -27 -27 -27 -27 -26 -26 -26 -26 -26 -25 -25 -25 -24 -24 -23 -23 -23 -22 -21 -21 -20 -20 -20 -20 -20 -20 -20 -20 -20 -19 -19 -19 -19 -19 -19 -19 -19 -19 -19 -19 -20 -20
-27 -27 -27 -27 -28 -26 -26 -25 -25 -26 -26 -26 -26 -26 -26 -26 -25 -26 -26 -25 -25 -25 -25 -25 -24 -24 -23 -23 -23 -22 -22 -21 -21 -21 -21 -20 -20 -20 -20 -19 -19 -19 -20 -19 -19 -19 -20 -20 -20 -20 -20 -21 -21 -21
-27 -28 -28 -27 -27 -28 -27 -26 -25 -25 -25 -26 -26 -26 -26 -25 -25 -25 -25 -25 -25 -25 -24 -24 -24 -24 -23 -23 -22 -22 -22 -22 -21 -22 -21 -21 -20 -20 -20 -20 -20 -20 -20 -20 -20 -20 -20 -20 -21 -21 -22 -22 -22 -22
-27 -27 -28 -28 -28 -28 -27 -27 -26 -25 -25 -25 -25 -26 -25 -25 -25 -24 -24 -24 -24 -24 -24 -24 -24 -24 -23 -23 -23 -23 -22 -22 -22 -22 -21 -20 -21 -21 -21 -21 -21 -21 -21 -22 -22 -22 -23 -22 -22 -22 -23 -23 -25 -26
-27 -28 -28 -28 -28 -28 -28 -28 -27 -27 -27 -26 -26 -26 -26 -25 -25 -25 -25 -24 -24 -24 -24 -24 -24 -24 -24 -23 -23 -23 -23 -23 -22 -22 -21 -22 -22 -22 -22 -22 -22 -22 -23 -23 -23 -23 -23 -23 -24 -25 -26 -27 -27 -27
-27 -27 -28 -28 -28 -28 -28 -28 -28 -28 -27 -26 -26 -26 -26 -26 -25 -25 -25 -25 -24 -24 -23 -24 -24 -24 -23 -23 -23 -23 -23 -22 -22 -22 -23 -22 -23 -23 -23 -23 -23 -24 -24 -24 -24 -24 -25 -26 -27 -27 -28 -28 -28 -29
-27 -27 -28 -28 -28 -28 -28 -28 -28 -28 -28 -28 -27 -26 -26 -26 -25 -24 -24 -24 -24 -24 -24 -24 -24 -24 -24 -23 -23 -24 -24 -23 -23 -24 -23 -23 -24 -24 -24 -24 -24 -24 -24 -24 -25 -26 -27 -28 -28 -29 -29 -29 -29 -29
-27 -27 -27 -28 -28 -28 -28 -28 -28 -28 -28 -28 -28 -27 -27 -27 -26 -26 -26 -25 -25 -25 -24 -24 -24 -24 -24 -24 -24 -24 -24 -24 -24 -24 -24 -25 -25 -25 -25 -25 -25 -26 -26 -27 -27 -28 -28 -29 -29 -29 -29 -29 -29 -30
-27 -27 -27 -27 -28 -28 -28 -28 -28 -28 -28 -28 -27 -28 -28 -27 -27 -27 -27 -27 -26 -26 -26 -26 -26 -26 -26 -26 -26 -26 -26 -26 -26 -26 -26 -26 -26 -27 -27 -28 -28 -28 -28 -29 -29 -29 -29 -29 -29 -30 -30 -30 -30 -30
-27 -27 -27 -27 -28 -28 -28 -28 -28 -28 -28 -28 -27 -28 -28 -28 -28 -28 -28 -28 -27 -27 -27 -27 -27 -26 -27 -27 -27 -27 -27 -27 -27 -27 -27 -28 -28 -28 -28 -29 -29 -29 -29 -29 -30 -30 -30 -30 -30 -30 -30 -30 -30 -30
-27 -27 -27 -27 -27 -28 -28 -28 -28 -28 -28 -28 -28 -28 -28 -28 -29 -29 -29 -29 -29 -29 -28 -28 -28 -28 -28 -28 -28 -28 -28 -28 -28 -28 -29 -29 -29 -29 -29 -29 -29 -30 -30 -30 -30 -30 -30 -30 -30 -30 -30 -30 -30 -30
-27 -27 -27 -27 -27 -28 -28 -28 -28 -28 -28 -28 -28 -28 -28 -28 -28 -29 -29 -28 -29 -28 -28 -28 -29 -29 -29 -29 -29 -29 -29 -29 -29 -29 -29 -29 -29 -29 -29 -30 -30 -30 -30 -30 -30 -30 -30 -30 -30 -30 -30 -30 -29 -29
-27 -27 -27 -27 -27 -27 -27 -27 -27 -28 -28 -28 -28 -28 -28 -28 -28 -28 -28 -28 -28 -29 -29 -29 -28 -29 -29 -29 -29 -29 -30 -30 -30 -30 -30 -29 -29 -30 -30 -30 -30 -30 -30 -30 -30 -30 -30 -29 -29 -29 -29 -29 -30 -30
-27 -27 -27 -27 -27 -27 -26 -27 -27 -27 -27 -27 -28 -28 -28 -28 -28 -28 -28 -28 -28 -28 -28 -28 -28 -28 -28 -28 -28 -28 -28 -29 -29 -29 -29 -29 -30 -30 -30 -30 -29 -29 -29 -29 -29 -29 -29 -29 -30 -30 -30 -30 -30 -30
-27 -27 -27 -27 -27 -27 -26 -27 -27 -27 -27 -27 -27 -27 -28 -28 -28 -28 -28 -28 -28 -28 -28 -28 -28 -28 -28 -28 -28 -28 -28 -28 -29 -29 -28 -28 -28 -28 -29 -29 -29 -29 -29 -29 -29 -29 -29 -30 -30 -30 -30 -30 -30 -30
-28 -28 -27 -27 -27 -27 -27 -27 -27 -27 -27 -27 -27 -27 -27 -27 -28 -27 -27 -27 -27 -28 -28 -28 -28 -27 -28 -27 -27 -27 -27 -27 -28 -28 -28 -28 -28 -28 -28 -28 -28 -29 -29 -29 -29 -29 -29 -29 -30 -30 -30 -30 -30 -31
-28 -28 -28 -28 -27 -27 -27 -27 -27 -27 -27 -27 -27 -27 -27 -27 -27 -27 -27 -27 -27 -27 -27 -27 -27 -27 -28 -28 -28 -28 -27 -28 -28 -28 -28 -28 -28 -28 -28 -28 -29 -29 -29 -29 -30 -30 -30 -30 -30 -30 -30 -30 -30 -31
-28 -28 -28 -28 -28 -27 -27 -27 -27 -27 -27 -27 -27 -27 -27 -27 -27 -27 -27 -27 -27 -28 -28 -28 -27 -27 -27 -27 -28 -28 -28 -28 -28 -28 -28 -28 -28 -29 -29 -29 -29 -29 -29 -29 -30 -30 -30 -30 -30 -30 -31 -31 -31 -31
-28 -28 -28 -28 -27 -27 -27 -27 -27 -27 -27 -27 -27 -27 -27 -27 -28 -28 -28 -28 -28 -28 -28 -27 -28 -28 -28 -28 -28 -28 -28 -28 -28 -28 -28 -28 -28 -28 -29 -29 -29 -29 -30 -30 -30 -30 -30 -30 -31 -31 -31 -31 -31 -32
-28 -29 -28 -28 -27 -27 -28 -28 -28 -27 -27 -27 -27 -27 -28 -28 -28 -28 -29 -28 -28 -28 -28 -28 -28 -28 -28 -28 -28 -28 -28 -27 -27 -28 -28 -28 -29 -29 -29 -29 -30 -30 -30 -30 -30 -31 -31 -31 -31 -31 -31 -32 -32 -33
-29 -29 -29 -28 -28 -27 -28 -28 -28 -28 -27 -27 -28 -28 -28 -28 -28 -28 -29 -29 -29 -28 -28 -29 -28 -28 -28 -28 -28 -28 -28 -28 -28 -28 -28 -29 -29 -29 -30 -30 -30 -30 -30 -31 -31 -31 -31 -31 -32 -32 -32 -33 -33 -34
-29 -29 -29 -29 -28 -28 -28 -27 -27 -27 -28 -28 -28 -28 -28 -28 -29 -29 -29 -29 -29 -29 -29 -29 -29 -29 -28 -28 -28 -28 -28 -28 -28 -29 -29 -29 -30 -30 -30 -30 -31 -31 -31 -31 -31 -32 -32 -32 -33 -33 -33 -34 -35 -36
-29 -30 -29 -29 -29 -29 -28 -28 -27 -27 -27 -27 -28 -28 -28 -28 -29 -29 -29 -29 -29 -29 -29 -29 -29 -28 -28 -28 -28 -28 -28 -29 -29 -29 -30 -30 -30 -30 -31 -31 -31 -31 -31 -31 -32 -32 -33 -33 -33 -34 -35 -35 -36 -36
-29 -29 -30 -30 -30 -30 -29 -28 -28 -28 -28 -28 -28 -28 -28 -28 -29 -29 -29 -29 -29 -29 -29 -29 -28 -28 -28 -29 -29 -29 -29 -29 -30 -30 -30 -30 -31 -31 -31 -31 -31 -32 -32 -32 -33 -33 -33 -34 -34 -35 -36 -36 -36 -36
Height
5294 5289 5285 5282 5278 5274 5268 5266 5268 5275 5283 5292 5302 5312 5320 5326 5334 5343 5351 5358 5369 5378 5389 5401 5415 5429 5440 5453 5468 5482 5492 5498 5508 5516 5521 5526 5533 5540 5546 5553 5558 5563 5567 5571 5573 5575 5583 5589 5590 5592 5597 5594 5592 5588
5292 5289 5286 5283 5281 5279 5277 5275 5276 5279 5285 5293 5302 5311 5321 5330 5337 5345 5352 5359 5366 5373 5386 5394 5407 5424 5435 5449 5462 5472 5479 5491 5501 5506 5512 5517 5523 5531 5537 5541 5547 5551 5556 5560 5562 5568 5573 5575 5577 5577 5579 5580 5581 5579
5291 5289 5286 5283 5283 5282 5282 5283 5283 5284 5288 5294 5302 5312 5319 5329 5337 5346 5351 5358 5364 5372 5380 5391 5402 5414 5428 5439 5449 5457 5467 5478 5489 5498 5502 5507 5512 5520 5524 5530 5534 5537 5543 5546 5551 5559 5560 5563 5565 5569 5570 5572 5571 5569
5290 5288 5286 5283 5284 5284 5286 5287 5290 5292 5295 5301 5307 5314 5320 5327 5335 5343 5350 5355 5360 5368 5377 5389 5400 5410 5420 5431 5439 5449 5460 5467 5477 5483 5488 5493 5501 5508 5513 5517 5522 5527 5532 5536 5540 5545 5548 5552 5555 5557 5559 5560 5560 5558
5289 5288 5286 5284 5285 5286 5287 5289 5292 5295 5299 5306 5312 5317 5323 5328 5335 5342 5346 5350 5355 5363 5369 5379 5390 5400 5409 5419 5431 5440 5448 5456 5464 5471 5474 5482 5488 5494 5500 5504 5511 5520 5525 5526 5532 5531 5534 5539 5542 5545 5546 5547 5545 5543
5288 5286 5286 5286 5285 5287 5289 5293 5295 5299 5303 5307 5312 5317 5321 5326 5332 5338 5341 5346 5353 5358 5364 5370 5380 5393 5403 5416 5424 5433 5440 5447 5454 5458 5463 5470 5477 5482 5487 5494 5504 5507 5511 5513 5519 5518 5523 5525 5528 5531 5532 5532 5531 5531
5288 5286 5285 5286 5286 5286 5288 5293 5297 5299 5302 5306 5310 5314 5319 5324 5329 5334 5341 5348 5349 5353 5360 5365 5374 5383 5391 5402 5412 5417 5428 5436 5442 5447 5454 5462 5470 5473 5478 5485 5491 5493 5497 5501 5505 5508 5510 5513 5515 5517 5519 5519 5518 5517
5286 5285 5285 5285 5286 5286 5287 5290 5293 5297 5300 5303 5307 5311 5317 5322 5327 5330 5335 5339 5343 5349 5354 5359 5365 5375 5382 5390 5402 5410 5420 5428 5436 5442 5449 5455 5458 5463 5469 5474 5477 5481 5485 5489 5492 5494 5494 5496 5499 5502 5505 5506 5505 5504
5286 5285 5284 5284 5285 5285 5286 5288 5292 5295 5298 5301 5304 5306 5313 5318 5324 5328 5331 5335 5340 5345 5348 5356 5364 5373 5380 5386 5397 5407 5413 5422 5429 5434 5439 5443 5446 5452 5457 5464 5467 5472 5475 5476 5477 5480 5483 5487 5489 5491 5492 5491 5488 5486
5284 5285 5284 5283 5285 5286 5286 5288 5290 5293 5295 5299 5303 5306 5310 5315 5320 5324 5329 5331 5335 5339 5345 5354 5362 5371 5375 5383 5390 5400 5407 5414 5418 5426 5428 5430 5437 5441 5448 5454 5456 5461 5463 5465 5467 5470 5471 5473 5475 5476 5476 5474 5471 5469
5282 5283 5284 5284 5284 5285 5287 5288 5290 5293 5296 5299 5303 5306 5310 5314 5319 5322 5324 5328 5333 5338 5345 5351 5358 5365 5373 5379 5386 5393 5397 5404 5408 5416 5420 5423 5429 5434 5438 5442 5443 5447 5450 5453 5455 5457 5458 5458 5459 5460 5458 5455 5452 5452
5279 5281 5282 5284 5285 5286 5287 5289 5290 5292 5295 5299 5302 5306 5310 5314 5317 5320 5323 5327 5332 5339 5343 5350 5356 5361 5367 5372 5376 5383 5390 5397 5402 5408 5409 5413 5421 5424 5428 5431 5435 5437 5438 5440 5441 5442 5442 5443 5443 5444 5443 5442 5440 5438
5277 5279 5281 5282 5285 5286 5288 5291 5292 5294 5295 5299 5302 5305 5309 5313 5314 5318 5321 5327 5334 5341 5344 5349 5355 5359 5363 5367 5373 5379 5385 5390 5394 5397 5402 5406 5410 5414 5417 5419 5422 5424 5426 5426 5428 5427 5426 5427 5429 5431 5430 5428 5426 5426
5276 5277 5279 5281 5284 5286 5288 5290 5292 5295 5298 5300 5302 5304 5307 5310 5313 5317 5319 5323 5328 5333 5338 5344 5351 5355 5361 5365 5370 5373 5377 5382 5386 5391 5394 5396 5399 5403 5406 5408 5411 5413 5413 5416 5417 5417 5416 5416 5416 5418 5419 5418 5418 5418
5274 5277 5278 5280 5282 5285 5287 5290 5292 5294 5296 5299 5302 5304 5306 5309 5312 5315 5318 5321 5325 5330 5335 5340 5345 5350 5354 5359 5363 5368 5371 5375 5379 5383 5386 5390 5391 5393 5396 5400 5402 5403 5404 5405 5405 5405 5406 5406 5407 5409 5410 5410 5410 5408
5274 5276 5278 5280 5282 5284 5286 5288 5291 5294 5295 5298 5300 5302 5306 5309 5310 5314 5317 5321 5325 5328 5332 5337 5341 5346 5350 5354 5358 5362 5365 5369 5373 5376 5380 5382 5383 5385 5388 5391 5392 5393 5394 5394 5394 5396 5398 5400 5399 5400 5400 5399 5398 5396
5273 5276 5279 5281 5283 5285 5286 5288 5290 5291 5294 5296 5298 5300 5304 5306 5309 5313 5316 5319 5322 5325 5329 5334 5339 5342 5346 5349 5353 5357 5360 5363 5366 5369 5371 5373 5375 5377 5379 5381 5382 5383 5384 5385 5387 5388 5390 5390 5390 5391 5390 5389 5388 5386
5272 5276 5279 5282 5284 5286 5288 5289 5291 5292 5293 5293 5295 5298 5300 5304 5307 5310 5313 5317 5321 5323 5326 5329 5333 5336 5340 5344 5348 5351 5353 5355 5358 5360 5363 5365 5366 5368 5370 5372 5375 5377 5378 5379 5380 5381 5382 5382 5382 5382 5380 5378 5375 5372
5270 5274 5279 5282 5285 5287 5288 5289 5291 5291 5292 5293 5293 5295 5297 5300 5303 5306 5309 5313 5316 5319 5322 5325 5327 5331 5336 5338 5340 5343 5345 5348 5351 5354 5356 5358 5360 5363 5366 5368 5369 5369 5370 5372 5373 5374 5373 5373 5372 5370 5367 5364 5361 5357
5268 5272 5276 5280 5283 5285 5287 5289 5291 5292 5293 5294 5295 5295 5297 5299 5302 5305 5308 5311 5313 5316 5319 5322 5326 5329 5332 5334 5337 5339 5342 5345 5348 5350 5353 5355 5357 5358 5360 5361 5362 5364 5365 5365 5365 5364 5364 5362 5360 5357 5354 5352 5348 5345
5266 5271 5274 5279 5282 5285 5288 5289 5291 5293 5294 5295 5296 5297 5299 5301 5303 5305 5308 5310 5312 5314 5317 5319 5322 5325 5327 5330 5333 5336 5339 5342 5344 5346 5347 5349 5351 5353 5355 5356 5357 5357 5357 5357 5356 5354 5353 5350 5348 5345 5342 5339 5335 5331
5264 5268 5273 5277 5281 5284 5287 5289 5292 5294 5296 5297 5298 5300 5301 5303 5305 5307 5309 5311 5313 5315 5316 5318 5319 5320 5323 5326 5329 5332 5334 5337 5339 5341 5343 5346 5347 5349 5349 5349 5349 5349 5348 5347 5345 5342 5340 5337 5335 5333 5329 5325 5321 5316
5261 5266 5270 5274 5279 5283 5287 5289 5291 5293 5296 5298 5300 5301 5303 5304 5306 5308 5310 5312 5313 5315 5317 5319 5320 5322 5324 5326 5328 5330 5332 5334 5336 5339 5340 5341 5342 5342 5341 5341 5340 5339 5338 5336 5333 5330 5328 5326 5323 5319 5315 5310 5304 5298
5257 5263 5267 5272 5276 5280 5284 5287 5290 5293 5295 5297 5299 5301 5303 5305 5306 5308 5310 5312 5313 5315 5316 5318 5320 5322 5324 5325 5327 5329 5330 5332 5333 5334 5335 5335 5335 5334 5334 5333 5332 5330 5328 5325 5322 5319 5317 5313 5310 5305 5299 5292 5285 5277
5255 5259 5265 5269 5274 5278 5280 5284 5287 5291 5293 5296 5298 5300 5302 5304 5305 5307 5309 5312 5313 5314 5316 5317 5318 5320 5321 5322 5324 5325 5327 5327 5328 5328 5329 5328 5328 5327 5326 5325 5323 5320 5318 5314 5312 5308 5304 5299 5294 5287 5279 5272 5265 5258
5251 5257 5262 5266 5270 5274 5277 5281 5284 5287 5291 5293 5295 5298 5299 5301 5303 5305 5307 5309 5311 5312 5313 5315 5316 5317 5318 5319 5320 5321 5322 5322 5322 5322 5321 5320 5319 5317 5315 5313 5311 5308 5305 5301 5297 5292 5287 5281 5275 5269 5262 5254 5245 5238
5249 5254 5258 5262 5266 5270 5274 5277 5280 5284 5287 5289 5292 5294 5296 5298 5300 5302 5304 5306 5307 5308 5309 5310 5311 5312 5313 5314 5314 5314 5315 5315 5314 5314 5313 5311 5309 5307 5304 5302 5299 5295 5290 5286 5281 5276 5271 5266 5259 5251 5244 5235 5226 5218
5247 5250 5253 5258 5262 5266 5270 5274 5277 5280 5282 5285 5288 5290 5293 5295 5297 5298 5300 5301 5302 5304 5305 5306 5307 5308 5308 5308 5308 5308 5307 5307 5306 5305 5304 5302 5299 5296 5293 5290 5287 5283 5279 5274 5269 5263 5256 5249 5242 5234 5226 5218 5208 5197
5243 5247 5251 5256 5261 5264 5267 5270 5273 5276 5279 5281 5285 5288 5290 5292 5294 5295 5295 5296 5298 5299 5300 5300 5301 5302 5302 5302 5302 5301 5301 5300 5299 5298 5296 5293 5290 5287 5284 5280 5277 5273 5268 5262 5255 5248 5241 5234 5226 5218 5209 5199 5188 5177
5241 5245 5250 5254 5257 5260 5264 5268 5272 5274 5277 5280 5283 5285 5287 5289 5291 5292 5292 5292 5294 5294 5295 5296 5296 5296 5295 5295 5295 5295 5294 5293 5291 5289 5286 5284 5282 5279 5275 5271 5266 5260 5254 5248 5241 5233 5225 5217 5208 5198 5189 5178 5168 5159
5239 5243 5248 5252 5255 5259 5262 5265 5268 5271 5274 5276 5279 5282 5283 5285 5286 5287 5287 5288 5289 5290 5290 5291 5291 5291 5290 5290 5289 5288 5287 5285 5283 5281 5279 5277 5274 5270 5265 5260 5255 5248 5242 5234 5227 5218 5209 5200 5191 5181 5172 5163 5154 5148
5238 5242 5246 5249 5252 5255 5259 5263 5265 5267 5270 5273 5275 5277 5279 5280 5281 5282 5282 5283 5284 5285 5285 5285 5285 5284 5284 5284 5283 5281 5280 5278 5276 5274 5271 5267 5263 5259 5253 5247 5241 5234 5226 5219 5210 5201 5193 5183 5174 5165 5157 5150 5145 5141
5237 5240 5243 5245 5247 5251 5257 5261 5262 5264 5266 5268 5270 5272 5274 5275 5276 5277 5277 5278 5279 5279 5279 5279 5278 5278 5277 5277 5276 5275 5273 5271 5268 5265 5261 5257 5253 5247 5241 5234 5227 5220 5211 5203 5194 5185 5175 5167 5158 5151 5146 5142 5138 5134
Wind_Speed
14 17 14 4 11 11 7 11 16 37 41 43 42 44 42 32 28 30 32 26 23 30 37 50 56 61 64 70 75 81 68 62 57 51 47 43 48 54 57 57 58 62 55 53 55 57 60 56 54 55 53 53 57 57
12 12 10 6 3 8 14 16 14 19 28 33 41 42 49 47 42 33 32 28 22 34 49 46 49 57 62 66 66 62 65 65 60 57 50 50 48 48 53 55 54 54 53 45 48 53 51 49 50 52 52 52 50 50
10 8 13 6 5 8 11 15 16 24 23 30 35 35 36 42 40 37 32 29 27 26 47 43 38 43 50 50 48 52 57 74 76 72 66 58 47 47 43 42 44 46 45 45 44 42 40 39 42 42 42 44 46 46
10 9 10 4 5 11 8 14 16 19 19 22 30 37 35 37 38 33 31 28 29 31 52 52 50 46 47 45 47 46 52 56 61 65 64 64 65 57 49 48 44 44 44 44 45 44 42 37 33 32 34 37 40 43
14 6 8 8 12 10 19 20 15 18 17 17 21 24 27 27 28 28 29 28 26 36 37 67 57 47 51 40 48 53 46 45 43 50 55 63 61 61 60 55 56 51 45 43 42 43 43 39 34 35 37 39 42 45
10 6 6 8 11 13 15 18 23 26 25 23 22 24 26 27 26 30 33 32 24 24 40 64 60 55 52 48 51 49 43 40 39 44 48 45 47 48 52 51 48 47 51 50 44 43 42 40 39 38 39 38 39 38
4 5 5 6 8 13 19 21 18 24 23 24 26 28 29 26 25 29 31 31 34 39 36 41 70 50 51 42 49 49 47 36 37 40 45 45 48 47 51 52 41 38 38 36 35 35 36 37 34 35 35 32 32 37
2 3 7 7 5 9 16 19 20 23 20 20 26 31 27 25 21 25 29 25 33 37 41 43 45 72 55 50 47 50 42 37 41 48 47 39 28 29 33 28 30 31 31 31 33 34 35 35 36 34 32 34 40 46
4 1 3 11 8 9 11 15 22 21 22 18 14 27 35 32 27 26 27 27 34 31 39 40 34 46 63 65 61 51 50 51 48 44 40 36 31 30 28 31 31 33 33 31 32 33 32 27 28 31 35 39 45 50
5 7 4 2 9 12 14 13 12 12 14 21 20 19 22 21 18 27 24 22 29 26 53 40 31 25 21 40 55 48 43 50 49 56 56 51 48 46 43 37 33 32 31 27 27 32 35 39 40 42 44 47 50 53
7 8 11 10 6 7 10 17 15 14 19 21 24 25 22 19 26 20 15 22 23 34 37 40 34 28 21 29 49 49 50 55 55 52 56 58 54 47 41 37 37 35 36 37 37 40 43 44 47 48 48 49 51 52
7 10 12 13 14 12 9 7 9 9 11 15 22 23 24 23 27 23 21 17 21 36 42 25 20 23 25 22 26 42 46 47 49 32 29 30 33 36 39 39 41 43 43 42 43 44 45 46 46 46 47 48 49 48
8 10 13 13 13 12 14 15 12 10 12 12 13 15 22 25 27 29 27 18 27 37 42 29 29 27 21 21 20 25 30 28 27 29 30 30 38 42 45 46 45 44 43 40 38 38 40 43 44 45 44 41 36 33
9 10 11 14 14 14 13 17 21 25 23 21 19 18 19 25 30 31 31 26 23 26 27 31 30 30 29 28 25 25 28 30 31 31 31 31 31 32 33 35 36 36 36 36 37 38 39 39 37 35 32 31 31 29
10 11 11 11 13 15 15 14 14 18 22 25 24 25 22 20 19 21 22 22 23 25 27 27 24 26 30 33 33 33 35 34 32 31 30 31 31 31 32 33 32 32 34 35 36 36 34 33 32 31 31 31 32 33
12 11 12 13 12 12 12 14 14 14 15 18 23 23 23 20 20 20 22 22 23 24 27 30 30 34 34 34 33 33 31 31 31 31 31 31 30 31 32 33 34 34 35 35 32 31 31 31 30 31 32 34 36 37
14 14 14 13 12 11 11 11 11 13 14 15 17 20 23 25 24 23 24 25 25 25 28 31 34 34 33 32 31 31 29 30 30 30 31 30 31 32 33 34 33 31 29 27 26 26 28 29 30 30 31 33 36 38
17 16 15 14 14 13 12 10 10 9 9 11 15 17 20 21 20 22 23 24 24 23 23 21 22 23 25 25 24 25 27 27 28 28 28 28 26 26 25 25 23 23 23 22 22 21 22 25 28 31 33 36 40 44
19 18 17 15 15 14 12 10 9 9 9 7 9 12 13 15 17 17 17 18 19 20 23 26 28 28 25 25 25 26 27 27 26 24 23 23 23 23 22 21 20 20 20 20 22 24 26 28 31 35 39 43 44 43
20 19 18 17 15 14 13 12 10 9 9 9 11 13 15 16 15 13 14 17 20 21 21 21 21 20 20 20 21 22 22 22 22 23 23 22 20 19 19 20 21 21 22 24 26 28 31 34 38 41 41 40 39 40
23 21 19 17 16 15 13 12 11 12 13 11 10 12 14 15 15 14 13 12 12 12 12 15 18 20 22 23 22 21 20 19 21 21 20 20 22 22 21 21 21 23 25 28 31 34 37 38 38 37 37 39 42 47
25 23 21 18 16 14 12 10 9 8 7 9 10 11 11 12 11 11 11 12 14 15 14 12 12 14 14 15 16 16 18 21 21 21 20 19 19 19 20 23 26 28 30 32 34 35 36 36 37 39 43 47 51 55
26 25 23 22 20 17 15 12 9 7 5 4 4 4 6 7 7 8 7 8 8 8 8 8 7 6 7 8 9 8 8 10 14 16 16 18 20 22 25 27 29 31 32 33 35 37 39 40 43 47 52 56 60 66
29 27 25 24 23 21 19 17 15 12 10 8 6 5 3 3 2 2 2 3 2 1 2 3 3 4 5 6 6 7 7 9 11 14 16 19 21 24 26 29 31 33 36 37 39 42 44 48 52 57 62 66 69 68
31 30 28 25 23 23 22 20 18 16 14 13 11 10 10 10 9 9 7 5 5 6 6 6 8 9 10 11 12 13 14 15 17 19 21 23 26 29 31 33 35 38 41 44 47 50 54 58 62 64 63 61 62 65
30 29 27 27 25 25 23 21 19 17 15 14 14 13 13 14 14 13 13 13 12 12 11 11 12 12 14 15 16 17 17 19 20 23 25 27 30 33 36 39 41 43 46 48 50 51 51 51 51 54 58 62 62 62
26 25 24 25 25 24 23 22 20 17 15 15 15 15 14 14 14 13 13 12 12 12 13 14 16 17 18 19 20 21 23 24 26 28 29 32 34 36 38 38 38 37 38 39 41 43 46 51 55 58 58 60 61 65
24 25 25 25 25 25 22 21 19 18 17 16 15 15 13 11 11 13 12 12 13 12 12 12 12 12 14 14 15 16 17 18 19 20 22 25 27 30 31 32 34 35 36 40 45 50 53 54 55 56 58 62 66 70
26 24 23 22 22 21 19 19 20 19 18 16 15 12 10 10 9 8 9 11 11 12 13 13 12 12 12 13 14 15 15 15 17 20 23 25 27 28 30 32 35 39 44 48 49 49 50 52 55 59 63 66 68 68
25 23 21 20 23 24 22 20 18 18 16 14 12 11 11 10 10 10 10 12 12 12 12 11 12 14 16 16 16 14 14 16 20 22 23 25 27 30 33 37 41 44 44 45 47 51 55 58 60 63 65 65 62 54
27 25 22 20 21 21 20 19 18 16 14 13 12 10 10 11 11 13 15 16 15 15 16 16 15 17 18 17 15 15 15 18 21 22 24 27 31 34 37 39 40 42 45 49 53 56 58 61 62 63 61 56 46 36
25 22 20 20 22 22 21 20 19 18 15 12 9 9 9 11 12 13 15 15 15 16 17 18 18 18 17 16 15 16 18 20 22 25 28 30 33 36 38 40 43 46 50 56 58 59 61 62 61 56 50 39 32 30
24 24 23 23 24 22 18 16 16 14 12 10 10 10 10 11 11 12 13 12 12 12 13 16 16 16 15 15 16 19 21 23 25 28 30 33 36 39 41 45 48 52 57 60 61 62 62 61 54 45 35 29 27 27
Wind_Direction
347 341 342 341 17 33 64 116 160 191 185 188 190 191 198 205 207 197 201 200 197 193 200 205 208 214 214 217 220 219 221 220 218 220 222 226 229 229 230 228 227 229 237 240 239 246 243 247 256 259 262 261 265 265
339 1 331 316 352 62 84 87 141 176 181 190 188 186 193 192 204 210 204 204 199 191 187 201 204 206 203 202 210 210 217 219 220 222 226 229 233 236 234 232 233 236 237 244 243 244 248 249 251 254 256 257 258 262
336 321 351 260 200 115 122 121 111 120 148 173 183 187 181 187 195 209 209 206 204 194 181 182 195 210 211 212 214 221 227 233 232 233 241 236 237 240 237 238 243 242 240 246 249 247 247 248 252 257 259 258 260 264
343 347 19 5 185 170 142 135 153 149 137 138 153 168 176 178 193 202 203 204 203 196 189 180 181 187 191 202 207 216 216 216 222 224 233 239 242 242 245 249 246 243 242 248 249 246 244 248 255 257 258 261 265 267
345 332 38 43 182 177 161 165 154 157 155 161 171 176 183 188 190 190 201 203 197 192 204 192 195 199 194 205 211 211 218 217 228 232 238 242 246 247 248 250 250 252 255 254 252 245 242 243 255 262 264 268 267 263
350 334 92 114 139 200 215 170 166 181 185 192 200 186 188 193 191 194 200 195 203 215 211 202 195 199 198 207 218 220 213 207 215 222 225 230 230 235 237 245 251 251 250 252 254 244 245 252 262 270 267 263 261 262
346 4 193 121 157 165 189 198 204 187 187 183 188 192 194 195 205 203 211 207 211 211 214 209 197 189 187 194 192 186 194 211 224 236 243 247 245 237 245 248 240 235 238 241 247 256 270 276 262 256 254 250 251 254
294 31 157 168 161 163 174 190 183 187 188 189 200 205 203 199 204 202 202 199 211 202 215 202 204 207 198 199 208 212 209 221 225 224 220 223 232 232 228 232 242 242 244 252 269 269 258 253 247 243 248 253 256 259
230 128 69 141 147 147 142 166 180 189 179 182 192 199 199 209 208 204 212 198 207 220 211 200 190 204 215 217 214 220 219 210 225 216 216 219 226 241 244 262 261 259 255 243 240 236 237 248 257 257 258 259 261 264
255 190 148 120 140 141 156 173 184 199 176 180 182 176 183 196 206 189 203 203 199 207 205 198 204 210 215 207 204 208 214 214 220 229 240 251 259 263 261 256 251 241 235 239 248 252 256 267 271 268 265 267 267 269
229 209 179 163 180 166 147 134 141 152 176 175 175 185 188 210 193 202 218 208 208 202 209 212 215 218 223 217 216 218 221 224 231 237 239 242 247 248 249 247 247 241 246 254 260 259 258 259 260 263 267 270 274 278
224 207 194 181 168 177 189 164 136 142 148 171 193 195 185 196 211 213 201 215 212 210 198 213 228 237 230 242 219 214 223 229 229 232 231 224 226 233 235 237 241 250 257 262 260 258 261 264 268 271 273 275 277 276
214 206 195 190 188 173 166 185 194 184 161 172 189 194 194 203 202 208 217 215 205 207 212 220 228 224 233 222 217 218 219 225 230 233 231 230 235 238 241 245 251 255 257 257 260 265 268 270 272 274 276 276 274 272
198 200 196 188 186 185 180 169 172 192 201 199 197 204 206 213 222 231 234 226 213 212 210 217 228 237 227 224 230 236 235 236 242 240 240 242 242 242 244 247 250 254 258 263 268 271 272 273 273 271 269 264 262 263
178 182 181 184 184 182 184 188 183 173 179 181 191 194 201 207 207 205 214 218 222 230 228 229 236 234 236 234 236 239 247 250 250 247 249 250 250 253 255 257 260 263 266 267 267 266 262 260 260 261 261 264 268 272
165 164 166 169 172 177 183 187 193 193 188 190 193 196 194 194 202 202 204 208 213 222 231 232 222 219 218 222 228 234 236 241 241 241 246 250 253 256 258 261 263 263 264 262 257 253 252 254 258 263 269 272 272 274
165 158 156 155 154 158 165 175 185 194 198 204 208 208 206 207 204 202 201 206 209 207 200 203 210 215 218 219 224 228 235 238 242 245 248 250 254 257 258 259 259 256 254 253 253 253 257 260 263 263 264 268 272 275
167 164 161 159 158 156 156 161 169 174 185 200 207 209 210 207 197 200 205 207 208 213 217 216 216 222 226 229 231 234 236 240 244 248 252 253 252 250 246 245 247 247 248 251 255 257 255 260 267 271 274 276 278 280
171 166 163 160 159 155 152 151 153 163 167 169 176 182 190 199 207 207 201 199 198 205 213 220 224 227 228 229 231 234 238 241 244 242 239 236 233 234 237 241 246 251 257 261 265 268 270 274 277 278 280 282 285 287
173 167 163 160 151 144 136 129 122 132 140 133 132 133 134 141 153 165 179 192 200 204 209 212 214 215 216 220 222 224 224 226 225 224 224 225 228 236 242 248 254 259 261 264 268 272 276 278 280 282 284 284 285 289
179 175 170 165 161 156 148 136 120 108 101 109 118 118 117 122 127 132 140 150 167 186 201 212 215 216 215 212 212 214 217 217 215 216 225 233 241 247 254 259 261 263 266 270 274 276 278 279 279 280 284 288 292 293
185 184 180 178 176 173 170 163 154 135 116 102 94 99 115 123 127 128 126 126 124 120 125 134 145 160 180 197 207 214 221 224 224 226 232 240 249 258 262 265 268 272 275 277 278 280 281 283 284 286 287 289 289 290
191 192 192 192 192 196 198 202 201 196 183 161 131 114 101 100 104 119 119 133 147 158 158 159 168 171 174 179 189 201 211 219 226 238 247 254 258 262 267 272 274 278 282 283 283 283 282 282 284 287 289 290 291 294
194 196 200 202 203 204 210 212 216 219 216 214 215 211 191 177 203 202 136 130 155 191 208 205 210 219 230 239 248 251 251 257 261 267 271 274 277 280 283 286 288 288 287 285 284 284 285 287 289 290 291 293 295 296
199 201 203 205 207 211 213 213 216 217 218 219 219 217 218 223 229 243 245 235 228 231 237 252 259 267 272 277 277 278 280 280 281 282 282 284 285 285 287 288 288 288 288 287 287 287 287 288 289 292 294 296 297 299
201 203 205 208 209 211 213 211 211 213 214 219 222 221 221 226 230 234 240 245 252 256 258 253 252 255 258 264 271 276 277 278 280 282 284 285 287 288 288 288 290 291 291 290 290 290 291 294 296 298 298 298 299 299
198 196 201 204 208 211 211 208 206 205 203 208 214 217 218 225 231 235 242 246 248 249 250 253 255 259 264 269 273 277 279 281 283 284 285 285 285 287 289 290 292 293 295 298 300 302 302 302 301 300 301 301 302 302
188 193 198 198 201 206 207 202 199 195 195 202 208 213 217 222 224 233 238 240 242 245 249 252 255 263 268 272 273 275 276 276 277 281 287 292 297 299 300 303 304 304 303 303 304 305 304 304 304 304 304 304 305 307
188 193 196 194 196 202 203 198 193 190 192 197 203 205 202 202 205 209 217 229 238 242 247 253 260 264 271 274 277 281 286 291 297 301 301 303 305 307 307 304 301 302 304 305 306 306 307 307 306 307 307 308 309 310
187 193 190 188 193 199 204 203 195 194 195 200 202 204 211 218 219 220 226 234 238 237 238 245 259 270 271 276 280 280 286 295 302 306 308 309 308 306 302 303 305 308 308 308 309 310 310 310 310 311 312 313 313 314
189 192 190 189 194 200 204 209 215 218 217 218 215 211 214 217 216 219 225 232 237 235 238 246 257 260 264 267 271 281 292 300 304 307 308 307 306 307 309 310 309 309 310 313 315 314 313 312 313 313 315 315 315 313
188 189 193 199 207 209 209 213 222 228 225 222 218 219 223 221 222 226 233 238 240 242 246 253 257 260 265 271 278 288 297 301 305 308 309 311 313 314 314 313 314 315 318 318 317 315 315 315 315 316 315 315 313 315
191 195 199 209 217 221 217 215 224 232 236 237 234 228 224 228 227 234 239 241 250 254 259 263 264 263 268 275 285 293 298 302 306 308 311 314 317 318 318 317 318 319 320 319 317 317 316 316 317 316 314 314 315 317